Location: Burland Observatory
(39.4088°N, 105.4217°W)
Time: 13:34:48
(UTC-07:00)

SR - Pass Details

Date: 13 December 2019
Orbit: 574 x 882 km, 66.7° (Epoch: 18 January)

Event Time Altitude Azimuth Distance (km) Brightness Sun altitude
Rises 19:12:41 0° 313° (NW) 3,443 ? -28.9°
Reaches altitude 10° 19:16:14 10° 292° (WNW) 2,462 ? -29.6°
Maximum altitude 19:19:25 15° 258° (WSW) 2,053 ? -30.2°
Drops below altitude 10° 19:22:30 10° 223° (SW) 2,357 ? -30.8°
Sets 19:25:48 0° 201° (SSW) 3,216 ? -31.4°
